,,Stat1,,Stat2,,Stat3,,Stat4,,Wind1,,Wind1,
time,status,PR1M_SUM,status,RH1M_AVG,status,SR1M_AVG,status,TA1M_AVG,status,W1dAve1m,status,W1sAve1m,
1999-11-26, 00:01:00,VALID,0.2,VALID,99.662,VALID,0,VALID,20.2138,VALID,94,VALID,0.87859,
1999-11-26, 00:02:00,VALID,0,VALID,99.662,VALID,0,VALID,20.2168,VALID,93,VALID,0.798725,
1999-11-26, 00:03:00,VALID,0,VALID,99.6569,VALID,0,VALID,20.2068,VALID,104,VALID,0.71136,
1999-11-26, 00:04:00,VALID,0,VALID,99.6506,VALID,0,VALID,20.2108,VALID,98,VALID,0.794271,
1999-11-26, 00:05:00,VALID,0,VALID,99.6162,VALID,0,VALID,20.1916,VALID,108,VALID,0.902644,
1999-11-26, 00:06:00,VALID,0,VALID,99.6455,VALID,0,VALID,20.1949,VALID,100,VALID,0.941306,
1999-11-26, 00:07:00,VALID,0,VALID,99.676,VALID,0,VALID,20.2008,VALID,108,VALID,0.47065,
1999-11-26, 00:08:00,VALID,0,VALID,99.6709,VALID,0,VALID,20.2078,VALID,103,VALID,0.305889,
1999-11-26, 00:09:00,VALID,0,VALID,99.7434,VALID,0,VALID,20.2041,VALID,90,VALID,0.133984,
1999-11-26, 00:10:00,VALID,0,VALID,99.7332,VALID,0,VALID,20.1946,VALID,99,VALID,0.743273,
1999-11-26, 00:11:00,VALID,0,VALID,99.7434,VALID,0,VALID,20.1946,VALID,99,VALID,0,
1999-11-26, 00:12:00,VALID,0,VALID,99.718,VALID,0.0169808,VALID,20.1491,VALID,72,VALID,0,
1999-11-26, 00:13:00,VALID,0,VALID,99.7141,VALID,0,VALID,20.1494,VALID,64,VALID,0,
1999-11-26, 00:14:00,VALID,0,VALID,99.7434,VALID,0.0169808,VALID,20.1518,VALID,60,VALID,0,
1999-11-26, 00:15:00,VALID,0,VALID,99.7587,VALID,0,VALID,20.1685,VALID,57,VALID,0,
1999-11-26, 00:16:00,VALID,0,VALID,99.7447,VALID,0,VALID,20.1591,VALID,57,VALID,0,
1999-11-26, 00:17:00,VALID,0,VALID,99.7637,VALID,0,VALID,20.1583,VALID,60,VALID,0,
1999-11-26, 00:18:00,VALID,0,VALID,99.7612,VALID,0,VALID,20.1583,VALID,72,VALID,0,
1999-11-26, 00:19:00,VALID,0,VALID,99.723,VALID,0,VALID,20.1362,VALID,66,VALID,0,
1999-11-26, 00:20:00,VALID,0,VALID,99.6925,VALID,0.0169808,VALID,20.0904,VALID,63,VALID,0,
1999-11-26, 00:21:00,VALID,0,VALID,99.7002,VALID,0.0339617,VALID,20.0901,VALID,67,VALID,0,
1999-11-26, 00:22:00,VALID,0,VALID,99.7421,VALID,0,VALID,20.1101,VALID,69,VALID,0,
1999-11-26, 00:23:00,VALID,0,VALID,99.7154,VALID,0,VALID,20.0939,VALID,69,VALID,0,
1999-11-26, 00:24:00,VALID,0,VALID,99.7256,VALID,-0.0339617,VALID,20.0909,VALID,69,VALID,0,
1999-11-26, 00:25:00,VALID,0,VALID,99.7281,VALID,-0.101885,VALID,20.1019,VALID,69,VALID,0,
1999-11-26, 00:26:00,VALID,0,VALID,99.7345,VALID,-0.101885,VALID,20.1153,VALID,69,VALID,0,
1999-11-26, 00:27:00,VALID,0,VALID,99.7434,VALID,-0.101885,VALID,20.1414,VALID,71,VALID,0,
1999-11-26, 00:28:00,VALID,0,VALID,99.7497,VALID,-0.101885,VALID,20.1439,VALID,97,VALID,0,
1999-11-26, 00:29:00,VALID,0,VALID,99.7396,VALID,-0.101885,VALID,20.1402,VALID,103,VALID,0,
1999-11-26, 00:30:00,VALID,0,VALID,99.6989,VALID,-0.0849042,VALID,20.1215,VALID,104,VALID,0,
1999-11-26, 00:31:00,VALID,0,VALID,99.7485,VALID,-0.101885,VALID,20.1539,VALID,106,VALID,0,
1999-11-26, 00:32:00,VALID,0,VALID,99.7523,VALID,-0.101885,VALID,20.1636,VALID,107,VALID,0,
1999-11-26, 00:33:00,VALID,0,VALID,99.7523,VALID,-0.118866,VALID,20.1705,VALID,119,VALID,0,
1999-11-26, 00:34:00,VALID,0,VALID,99.7269,VALID,-0.101885,VALID,20.1504,VALID,115,VALID,0,
1999-11-26, 00:35:00,VALID,0,VALID,99.7091,VALID,-0.101885,VALID,20.134,VALID,95,VALID,0,
1999-11-26, 00:36:00,VALID,0,VALID,99.6811,VALID,-0.101885,VALID,20.1248,VALID,96,VALID,0,
1999-11-26, 00:37:00,VALID,0,VALID,99.718,VALID,-0.0849042,VALID,20.1342,VALID,120,VALID,0,
1999-11-26, 00:38:00,VALID,0,VALID,99.6887,VALID,-0.118866,VALID,20.1118,VALID,90,VALID,0,
1999-11-26, 00:39:00,VALID,0,VALID,99.662,VALID,-0.0509425,VALID,20.0718,VALID,89,VALID,0,
1999-11-26, 00:40:00,VALID,0,VALID,99.7078,VALID,0.0169808,VALID,20.0936,VALID,92,VALID,0,
1999-11-26, 00:41:00,VALID,0,VALID,99.7421,VALID,0.0339617,VALID,20.1101,VALID,94,VALID,0,
1999-11-26, 00:42:00,VALID,0,VALID,99.7307,VALID,0,VALID,20.1098,VALID,103,VALID,0,
1999-11-26, 00:43:00,VALID,0,VALID,99.7294,VALID,0,VALID,20.1071,VALID,100,VALID,0,
1999-11-26, 00:44:00,VALID,0,VALID,99.7485,VALID,0.0339617,VALID,20.1227,VALID,98,VALID,0,
1999-11-26, 00:45:00,VALID,0,VALID,99.7536,VALID,0.0169808,VALID,20.1192,VALID,98,VALID,0,
1999-11-26, 00:46:00,VALID,0,VALID,99.6963,VALID,0.0169808,VALID,20.0775,VALID,98,VALID,0,
1999-11-26, 00:47:00,VALID,0,VALID,99.7218,VALID,0,VALID,20.1073,VALID,90,VALID,0,
1999-11-26, 00:48:00,VALID,0,VALID,99.7269,VALID,0,VALID,20.1036,VALID,118,VALID,0.0949836,
1999-11-26, 00:49:00,VALID,0,VALID,99.6849,VALID,0.0169808,VALID,20.0713,VALID,119,VALID,0.780849,
1999-11-26, 00:50:00,VALID,0,VALID,99.6658,VALID,0,VALID,20.0519,VALID,127,VALID,0.786719,
1999-11-26, 00:51:00,VALID,0,VALID,99.6569,VALID,0,VALID,20.0357,VALID,150,VALID,0.45777,
1999-11-26, 00:52:00,VALID,0,VALID,99.6671,VALID,0,VALID,20.0257,VALID,134,VALID,0.154018,
1999-11-26, 00:53:00,VALID,0,VALID,99.6773,VALID,0,VALID,20.0297,VALID,123,VALID,0,
1999-11-26, 00:54:00,VALID,0,VALID,99.6849,VALID,-0.0339617,VALID,20.0039,VALID,122,VALID,0,
1999-11-26, 00:55:00,VALID,0,VALID,99.7065,VALID,-0.0679233,VALID,20.0138,VALID,131,VALID,0,
1999-11-26, 00:56:00,VALID,0,VALID,99.7154,VALID,-0.0339617,VALID,20.0238,VALID,121,VALID,0,
1999-11-26, 00:57:00,VALID,0,VALID,99.737,VALID,-0.0509425,VALID,20.0233,VALID,105,VALID,0,
1999-11-26, 00:58:00,VALID,0,VALID,99.7536,VALID,-0.0679233,VALID,20.0359,VALID,103,VALID,0,
1999-11-26, 00:59:00,VALID,0,VALID,99.7523,VALID,-0.0849042,VALID,20.0233,VALID,105,VALID,0,
1999-11-26, 01:00:00,VALID,0,VALID,99.7675,VALID,-0.0509425,VALID,20.0325,VALID,116,VALID,0,
1999-11-26, 01:01:00,VALID,0,VALID,99.779,VALID,-0.0679233,VALID,20.0521,VALID,120,VALID,0,
1999-11-26, 01:02:00,VALID,0,VALID,99.779,VALID,-0.0339617,VALID,20.0524,VALID,121,VALID,0,
1999-11-26, 01:03:00,VALID,0,VALID,99.7879,VALID,-0.0849042,VALID,20.0551,VALID,124,VALID,0,
1999-11-26, 01:04:00,VALID,0,VALID,99.7714,VALID,-0.0849042,VALID,20.0392,VALID,133,VALID,0,
1999-11-26, 01:05:00,VALID,0,VALID,99.7447,VALID,-0.0849042,VALID,20.03,VALID,134,VALID,0,
1999-11-26, 01:06:00,VALID,0,VALID,99.7396,VALID,-0.0849042,VALID,20.0173,VALID,134,VALID,0,
1999-11-26, 01:07:00,VALID,0.2,VALID,99.7396,VALID,-0.0849042,VALID,19.9944,VALID,128,VALID,0,
1999-11-26, 01:08:01,VALID,0,VALID,99.7497,VALID,-0.0849042,VALID,19.9944,VALID,120,VALID,0,
1999-11-26, 01:09:00,VALID,0,VALID,99.7803,VALID,-0.0339617,VALID,20.0133,VALID,120,VALID,0,
1999-11-26, 01:10:00,VALID,0,VALID,99.8082,VALID,0.0679233,VALID,20.0215,VALID,110,VALID,0,
1999-11-26, 01:11:00,VALID,0,VALID,99.7675,VALID,0.0509425,VALID,20.0155,VALID,97,VALID,0,
1999-11-26, 01:12:00,VALID,0,VALID,99.7815,VALID,0.0169808,VALID,20.0158,VALID,97,VALID,0,
1999-11-26, 01:13:00,VALID,0,VALID,99.7981,VALID,0.0339617,VALID,20.0215,VALID,97,VALID,0,
1999-11-26, 01:14:00,VALID,0,VALID,99.7688,VALID,0.0339617,VALID,20.012,VALID,97,VALID,0,
1999-11-26, 01:15:00,VALID,0,VALID,99.7828,VALID,0.0169808,VALID,20.0053,VALID,97,VALID,0,
1999-11-26, 01:16:00,VALID,0,VALID,99.7879,VALID,0.0509425,VALID,20.0153,VALID,97,VALID,0,
1999-11-26, 01:17:00,VALID,0,VALID,99.8044,VALID,0.0339617,VALID,20.0317,VALID,97,VALID,0,
1999-11-26, 01:18:00,VALID,0,VALID,99.826,VALID,0,VALID,20.0484,VALID,115,VALID,0,
1999-11-26, 01:19:01,VALID,0,VALID,99.8388,VALID,0,VALID,20.0737,VALID,117,VALID,0,
1999-11-26, 01:20:00,VALID,0,VALID,99.8438,VALID,0,VALID,20.0767,VALID,117,VALID,0,
1999-11-26, 01:21:00,VALID,0,VALID,99.8527,VALID,0.0169808,VALID,20.0894,VALID,117,VALID,0,
1999-11-26, 01:22:00,VALID,0,VALID,99.8324,VALID,0.0339617,VALID,20.0867,VALID,117,VALID,0,
1999-11-26, 01:23:00,VALID,0.2,VALID,99.84,VALID,0.0169808,VALID,20.0834,VALID,120,VALID,0,
1999-11-26, 01:24:00,VALID,0,VALID,99.8616,VALID,0.0509425,VALID,20.1023,VALID,120,VALID,0,
1999-11-26, 01:25:00,VALID,0.2,VALID,99.8578,VALID,0.0339617,VALID,20.1058,VALID,126,VALID,0,
1999-11-26, 01:26:00,VALID,0,VALID,99.8248,VALID,0,VALID,20.0839,VALID,136,VALID,0,
1999-11-26, 01:27:00,VALID,0.2,VALID,99.7765,VALID,0.0339617,VALID,20.0474,VALID,139,VALID,0,
1999-11-26, 01:28:00,VALID,0.2,VALID,99.7497,VALID,0.0339617,VALID,19.9897,VALID,147,VALID,0,
1999-11-26, 01:29:00,VALID,0.2,VALID,99.765,VALID,0.0339617,VALID,19.9862,VALID,152,VALID,0,
1999-11-26, 01:30:01,VALID,0,VALID,99.7968,VALID,0.0169808,VALID,19.9996,VALID,156,VALID,0,
1999-11-26, 01:31:00,VALID,0,VALID,99.8171,VALID,0,VALID,20.0026,VALID,156,VALID,0,
1999-11-26, 01:32:00,VALID,0,VALID,99.8426,VALID,0.0169808,VALID,20.0252,VALID,110,VALID,0,
1999-11-26, 01:33:00,VALID,0,VALID,99.8616,VALID,0.0339617,VALID,20.0379,VALID,92,VALID,0,
1999-11-26, 01:34:00,VALID,0.2,VALID,99.8489,VALID,0.0169808,VALID,20.028,VALID,92,VALID,0,
1999-11-26, 01:35:00,VALID,0,VALID,99.8362,VALID,0.0169808,VALID,20.0088,VALID,100,VALID,0,
1999-11-26, 01:36:00,VALID,0,VALID,99.8413,VALID,0.0509425,VALID,20.0125,VALID,105,VALID,0,
1999-11-26, 01:37:00,VALID,0,VALID,99.8299,VALID,0.0339617,VALID,19.9892,VALID,114,VALID,0,
1999-11-26, 01:38:00,VALID,0,VALID,99.8159,VALID,0.0509425,VALID,19.9762,VALID,111,VALID,0,
1999-11-26, 01:39:00,VALID,0.2,VALID,99.8337,VALID,0.0169808,VALID,19.9862,VALID,115,VALID,0,
1999-11-26, 01:40:01,VALID,0,VALID,99.8311,VALID,0.101885,VALID,19.9929,VALID,115,VALID,0,
1999-11-26, 01:41:01,VALID,0,VALID,99.8426,VALID,0.0339617,VALID,19.9727,VALID,115,VALID,0,
1999-11-26, 01:42:00,VALID,0,VALID,99.8527,VALID,0.0339617,VALID,19.9864,VALID,100,VALID,0,
1999-11-26, 01:43:00,VALID,0.2,VALID,99.8502,VALID,0.0849042,VALID,19.9931,VALID,97,VALID,0,
1999-11-26, 01:44:00,VALID,0,VALID,99.8311,VALID,0.0509425,VALID,19.977,VALID,95,VALID,0,
1999-11-26, 01:45:00,VALID,0.4,VALID,99.8388,VALID,0.0339617,VALID,19.9603,VALID,91,VALID,0,
1999-11-26, 01:46:00,VALID,0.4,VALID,99.8489,VALID,0.0339617,VALID,19.9767,VALID,91,VALID,0,
1999-11-26, 01:47:00,VALID,0.4,VALID,99.84,VALID,0.0509425,VALID,19.967,VALID,90,VALID,0,
1999-11-26, 01:48:00,VALID,0.6,VALID,99.84,VALID,0.0339617,VALID,19.9571,VALID,92,VALID,0,
1999-11-26, 01:49:00,VALID,0.4,VALID,99.8502,VALID,0.0339617,VALID,19.9608,VALID,97,VALID,0.738715,
1999-11-26, 01:50:00,VALID,0.4,VALID,99.8451,VALID,0.0509425,VALID,19.9546,VALID,106,VALID,0.536801,
1999-11-26, 01:51:01,VALID,0.2,VALID,99.8477,VALID,0.0509425,VALID,19.9315,VALID,106,VALID,0.527961,
1999-11-26, 01:52:01,VALID,0.2,VALID,99.8362,VALID,0.0679233,VALID,19.9218,VALID,106,VALID,0.48602,
1999-11-26, 01:53:00,VALID,0.2,VALID,99.8464,VALID,0.0169808,VALID,19.9153,VALID,100,VALID,0.641627,
1999-11-26, 01:54:00,VALID,0,VALID,99.8349,VALID,0.0169808,VALID,19.9133,VALID,101,VALID,0.932031,
1999-11-26, 01:55:00,VALID,0.2,VALID,99.8515,VALID,-0.0509425,VALID,19.8909,VALID,106,VALID,0.670819,
1999-11-26, 01:56:00,VALID,0,VALID,99.84,VALID,-0.0849042,VALID,19.881,VALID,91,VALID,0.685045,
1999-11-26, 01:57:00,VALID,0.2,VALID,99.8413,VALID,-0.0679233,VALID,19.8718,VALID,90,VALID,0.11278,
1999-11-26, 01:58:00,VALID,0,VALID,99.8222,VALID,-0.0679233,VALID,19.8457,VALID,89,VALID,0.00164474,
1999-11-26, 01:59:00,VALID,0,VALID,99.8337,VALID,-0.101885,VALID,19.8462,VALID,89,VALID,0,
1999-11-26, 02:00:00,VALID,0,VALID,99.8248,VALID,-0.0509425,VALID,19.8395,VALID,89,VALID,0,
1999-11-26, 02:01:00,VALID,0,VALID,99.821,VALID,-0.101885,VALID,19.8233,VALID,92,VALID,0,
1999-11-26, 02:02:00,VALID,0,VALID,99.8375,VALID,-0.0849042,VALID,19.8233,VALID,104,VALID,0,
1999-11-26, 02:03:01,VALID,0,VALID,99.8642,VALID,-0.101885,VALID,19.8298,VALID,107,VALID,0,
1999-11-26, 02:04:00,VALID,0,VALID,99.8667,VALID,-0.0849042,VALID,19.8429,VALID,107,VALID,0,
1999-11-26, 02:05:00,VALID,0,VALID,99.8642,VALID,-0.0679233,VALID,19.8233,VALID,107,VALID,0,
1999-11-26, 02:06:00,VALID,0.2,VALID,99.8591,VALID,-0.101885,VALID,19.823,VALID,107,VALID,0,
1999-11-26, 02:07:00,VALID,0,VALID,99.8807,VALID,-0.0849042,VALID,19.836,VALID,98,VALID,0.544819,
1999-11-26, 02:08:00,VALID,0,VALID,99.8642,VALID,-0.0679233,VALID,19.8335,VALID,77,VALID,0.771998,
1999-11-26, 02:09:00,VALID,0,VALID,99.8477,VALID,-0.0679233,VALID,19.7969,VALID,75,VALID,0.65024,
1999-11-26, 02:10:00,VALID,0,VALID,99.8604,VALID,-0.0339617,VALID,19.7939,VALID,80,VALID,0.842773,
1999-11-26, 02:11:00,VALID,0,VALID,99.8616,VALID,-0.0509425,VALID,19.7942,VALID,72,VALID,0.84924,
1999-11-26, 02:12:00,VALID,0.2,VALID,99.8756,VALID,-0.0849042,VALID,19.7912,VALID,84,VALID,0.618304,
1999-11-26, 02:13:01,VALID,0,VALID,99.9049,VALID,-0.0679233,VALID,19.8104,VALID,77,VALID,0.475761,
1999-11-26, 02:14:01,VALID,0,VALID,99.9087,VALID,-0.0679233,VALID,19.8036,VALID,91,VALID,0.890008,
1999-11-26, 02:15:00,VALID,0,VALID,99.882,VALID,-0.101885,VALID,19.7713,VALID,76,VALID,0.924162,
1999-11-26, 02:16:00,VALID,0,VALID,99.8884,VALID,-0.0849042,VALID,19.7783,VALID,84,VALID,0.796675,
1999-11-26, 02:17:00,VALID,0,VALID,99.9036,VALID,-0.0679233,VALID,19.7716,VALID,93,VALID,0.932813,
1999-11-26, 02:18:00,VALID,0,VALID,99.9278,VALID,-0.0849042,VALID,19.791,VALID,107,VALID,0.757161,
1999-11-26, 02:19:00,VALID,0,VALID,99.9176,VALID,-0.0849042,VALID,19.7942,VALID,102,VALID,0.444712,
1999-11-26, 02:20:00,VALID,0,VALID,99.8922,VALID,-0.0849042,VALID,19.7649,VALID,115,VALID,0.394717,
1999-11-26, 02:21:00,VALID,0,VALID,99.8871,VALID,-0.0849042,VALID,19.7522,VALID,130,VALID,0.645616,
1999-11-26, 02:22:00,VALID,0,VALID,99.8845,VALID,-0.0679233,VALID,19.7492,VALID,126,VALID,0.484375,
1999-11-26, 02:23:01,VALID,0,VALID,99.8947,VALID,-0.0849042,VALID,19.7554,VALID,124,VALID,0.449836,
1999-11-26, 02:24:00,VALID,0,VALID,99.9189,VALID,-0.0339617,VALID,19.778,VALID,123,VALID,0.203331,
1999-11-26, 02:25:01,VALID,0,VALID,99.9214,VALID,0.0169808,VALID,19.7897,VALID,123,VALID,0,
1999-11-26, 02:26:00,VALID,0,VALID,99.9316,VALID,0.0169808,VALID,19.7892,VALID,123,VALID,0,
1999-11-26, 02:27:00,VALID,0,VALID,99.9074,VALID,0.0509425,VALID,19.777,VALID,137,VALID,0.0342061,
1999-11-26, 02:28:00,VALID,0,VALID,99.8782,VALID,0.0339617,VALID,19.7504,VALID,253,VALID,0.136384,
1999-11-26, 02:29:00,VALID,0,VALID,99.882,VALID,0.0169808,VALID,19.741,VALID,254,VALID,0,
1999-11-26, 02:30:00,VALID,0,VALID,99.8782,VALID,0.0509425,VALID,19.7313,VALID,254,VALID,0,
1999-11-26, 02:31:00,VALID,0,VALID,99.8731,VALID,0.0509425,VALID,19.7022,VALID,254,VALID,0,
1999-11-26, 02:32:00,VALID,0,VALID,99.882,VALID,0.0509425,VALID,19.7119,VALID,254,VALID,0,
1999-11-26, 02:33:00,VALID,0,VALID,99.8909,VALID,0.0339617,VALID,19.7084,VALID,254,VALID,0,
1999-11-26, 02:34:00,VALID,0,VALID,99.8782,VALID,0.0679233,VALID,19.6985,VALID,254,VALID,0,
1999-11-26, 02:35:00,VALID,0,VALID,99.8667,VALID,0.0509425,VALID,19.693,VALID,254,VALID,0,
1999-11-26, 02:36:00,VALID,0,VALID,99.8718,VALID,0.0339617,VALID,19.6796,VALID,231,VALID,0,
1999-11-26, 02:37:00,VALID,0,VALID,99.8744,VALID,0.0169808,VALID,19.68,VALID,223,VALID,0,
1999-11-26, 02:38:00,VALID,0,VALID,99.8795,VALID,0.0339617,VALID,19.6703,VALID,217,VALID,0,
1999-11-26, 02:39:00,VALID,0,VALID,99.8515,VALID,0,VALID,19.6442,VALID,212,VALID,0.174137,
1999-11-26, 02:40:00,VALID,0,VALID,99.8629,VALID,0.0849042,VALID,19.6308,VALID,202,VALID,0.48273,
1999-11-26, 02:41:00,VALID,0,VALID,99.8566,VALID,0.0849042,VALID,19.6181,VALID,194,VALID,0.564704,
1999-11-26, 02:42:00,VALID,0,VALID,99.8642,VALID,0.0339617,VALID,19.5953,VALID,189,VALID,0.497656,
1999-11-26, 02:43:00,VALID,0,VALID,99.8655,VALID,0.0509425,VALID,19.5793,VALID,186,VALID,0.584037,
1999-11-26, 02:44:00,VALID,0,VALID,99.8884,VALID,0.0679233,VALID,19.5791,VALID,185,VALID,0.552902,
1999-11-26, 02:45:00,VALID,0,VALID,99.8795,VALID,0.0849042,VALID,19.5696,VALID,185,VALID,0.409856,
1999-11-26, 02:46:00,VALID,0,VALID,99.9049,VALID,0.0679233,VALID,19.5634,VALID,199,VALID,0,
1999-11-26, 02:47:00,VALID,0,VALID,99.896,VALID,0.0679233,VALID,19.5664,VALID,211,VALID,0,
1999-11-26, 02:48:00,VALID,0,VALID,99.8833,VALID,0.0509425,VALID,19.5475,VALID,234,VALID,0,
1999-11-26, 02:49:00,VALID,0,VALID,99.8807,VALID,0.0679233,VALID,19.5311,VALID,239,VALID,0.50957,
1999-11-26, 02:50:00,VALID,0,VALID,99.896,VALID,0.101885,VALID,19.5209,VALID,245,VALID,0.583984,
1999-11-26, 02:51:00,VALID,0,VALID,99.8922,VALID,0.0849042,VALID,19.5144,VALID,243,VALID,0.565505,
1999-11-26, 02:52:00,VALID,0,VALID,99.9062,VALID,0.0509425,VALID,19.505,VALID,243,VALID,0.394531,
1999-11-26, 02:53:00,VALID,0,VALID,99.9189,VALID,0.0849042,VALID,19.5114,VALID,233,VALID,0,
1999-11-26, 02:54:00,VALID,0,VALID,99.9151,VALID,0.0509425,VALID,19.5251,VALID,227,VALID,0,
1999-11-26, 02:55:00,VALID,0,VALID,99.9062,VALID,-0.0169808,VALID,19.5132,VALID,229,VALID,0,
1999-11-26, 02:56:00,VALID,0,VALID,99.9329,VALID,0,VALID,19.506,VALID,232,VALID,0,
1999-11-26, 02:57:00,VALID,0,VALID,99.9316,VALID,-0.0339617,VALID,19.5164,VALID,218,VALID,0,
1999-11-26, 02:58:00,VALID,0,VALID,99.9494,VALID,-0.0509425,VALID,19.5328,VALID,212,VALID,0,
1999-11-26, 02:59:00,VALID,0,VALID,99.9532,VALID,-0.0169808,VALID,19.5293,VALID,212,VALID,0,
1999-11-26, 03:00:00,VALID,0,VALID,99.9494,VALID,-0.0509425,VALID,19.5196,VALID,212,VALID,0,
1999-11-26, 03:01:00,VALID,0,VALID,99.9519,VALID,-0.0509425,VALID,19.5263,VALID,212,VALID,0,
1999-11-26, 03:02:00,VALID,0,VALID,99.9392,VALID,-0.0679233,VALID,19.5099,VALID,212,VALID,0,
1999-11-26, 03:03:00,VALID,0,VALID,99.9176,VALID,-0.0509425,VALID,19.4905,VALID,212,VALID,0,
1999-11-26, 03:04:00,VALID,0,VALID,99.9265,VALID,-0.0679233,VALID,19.4808,VALID,212,VALID,0,
1999-11-26, 03:05:00,VALID,0,VALID,99.9405,VALID,-0.0509425,VALID,19.4642,VALID,212,VALID,0,
1999-11-26, 03:06:00,VALID,0,VALID,99.9379,VALID,-0.0509425,VALID,19.4547,VALID,212,VALID,0,
1999-11-26, 03:07:00,VALID,0,VALID,99.9771,VALID,-0.0339617,VALID,19.4582,VALID,194,VALID,0,
1999-11-26, 03:08:00,VALID,0,VALID,99.9931,VALID,0,VALID,19.4876,VALID,215,VALID,0,
1999-11-26, 03:09:00,VALID,0,VALID,99.999,VALID,-0.0169808,VALID,19.4905,VALID,213,VALID,0,
1999-11-26, 03:10:00,VALID,0,VALID,100,VALID,-0.0169808,VALID,19.4908,VALID,197,VALID,0,
1999-11-26, 03:11:00,VALID,0,VALID,99.9977,VALID,-0.0679233,VALID,19.4908,VALID,177,VALID,0.789885,
1999-11-26, 03:12:00,VALID,0,VALID,99.9845,VALID,-0.0339617,VALID,19.4612,VALID,171,VALID,0.715255,
1999-11-26, 03:13:00,VALID,0,VALID,100,VALID,-0.0509425,VALID,19.4622,VALID,185,VALID,0.933494,
1999-11-26, 03:14:00,VALID,0,VALID,100,VALID,-0.0169808,VALID,19.4677,VALID,162,VALID,0.741992,
1999-11-26, 03:15:00,VALID,0,VALID,100,VALID,-0.0509425,VALID,19.4816,VALID,180,VALID,0.456926,
1999-11-26, 03:16:00,VALID,0,VALID,100,VALID,-0.0339617,VALID,19.4679,VALID,165,VALID,0.604464,
1999-11-26, 03:17:00,VALID,0,VALID,100,VALID,-0.0509425,VALID,19.4582,VALID,152,VALID,0.89363,
1999-11-26, 03:18:00,VALID,0,VALID,100,VALID,-0.0679233,VALID,19.4649,VALID,133,VALID,0.888775,
1999-11-26, 03:19:00,VALID,0,VALID,100,VALID,-0.0339617,VALID,19.4619,VALID,135,VALID,0.862233,
1999-11-26, 03:20:00,VALID,0,VALID,100,VALID,-0.0339617,VALID,19.452,VALID,132,VALID,0.735176,
1999-11-26, 03:21:00,VALID,0,VALID,100,VALID,-0.0679233,VALID,19.4455,VALID,141,VALID,0.865234,
1999-11-26, 03:22:00,VALID,0,VALID,100,VALID,-0.0509425,VALID,19.4458,VALID,147,VALID,0.897135,
1999-11-26, 03:23:00,VALID,0,VALID,100,VALID,-0.0849042,VALID,19.4323,VALID,161,VALID,0.808293,
1999-11-26, 03:24:00,VALID,0,VALID,100,VALID,-0.0679233,VALID,19.446,VALID,159,VALID,0.902716,
1999-11-26, 03:25:00,VALID,0,VALID,100,VALID,-0.101885,VALID,19.4458,VALID,158,VALID,0.661675,
1999-11-26, 03:26:00,VALID,0,VALID,100,VALID,-0.101885,VALID,19.4463,VALID,170,VALID,0.614104,
1999-11-26, 03:27:00,VALID,0,VALID,100,VALID,-0.101885,VALID,19.4455,VALID,163,VALID,0.800164,
1999-11-26, 03:28:00,VALID,0,VALID,100,VALID,-0.0509425,VALID,19.4391,VALID,174,VALID,0.530839,
1999-11-26, 03:29:00,VALID,0,VALID,100,VALID,-0.101885,VALID,19.4425,VALID,184,VALID,0.684696,
1999-11-26, 03:30:00,VALID,0,VALID,100,VALID,-0.0679233,VALID,19.4458,VALID,189,VALID,0.747852,
1999-11-26, 03:31:00,VALID,0,VALID,100,VALID,-0.0679233,VALID,19.4617,VALID,208,VALID,0.837838,
1999-11-26, 03:32:00,VALID,0,VALID,100,VALID,-0.0509425,VALID,19.4689,VALID,190,VALID,0.989732,
1999-11-26, 03:33:00,VALID,0,VALID,100,VALID,-0.0169808,VALID,19.4711,VALID,193,VALID,0.90605,
1999-11-26, 03:34:00,VALID,0,VALID,100,VALID,-0.0509425,VALID,19.4811,VALID,195,VALID,0.862459,
1999-11-26, 03:35:00,VALID,0,VALID,100,VALID,-0.0339617,VALID,19.4776,VALID,196,VALID,0.846227,
1999-11-26, 03:36:00,VALID,0,VALID,100,VALID,-0.0339617,VALID,19.4749,VALID,190,VALID,0.709375,
1999-11-26, 03:37:00,VALID,0.2,VALID,100,VALID,-0.0679233,VALID,19.4652,VALID,191,VALID,1.05137,
1999-11-26, 03:38:00,VALID,0,VALID,100,VALID,-0.0509425,VALID,19.4649,VALID,191,VALID,0.721354,
1999-11-26, 03:39:00,VALID,0,VALID,100,VALID,-0.0679233,VALID,19.461,VALID,192,VALID,0.839543,
1999-11-26, 03:40:00,VALID,0,VALID,100,VALID,0.0509425,VALID,19.4766,VALID,185,VALID,1.15365,
1999-11-26, 03:41:00,VALID,0,VALID,100,VALID,0.0509425,VALID,19.4699,VALID,182,VALID,1.05279,
1999-11-26, 03:42:00,VALID,0,VALID,100,VALID,0.0509425,VALID,19.4669,VALID,179,VALID,0.940456,
1999-11-26, 03:43:00,VALID,0,VALID,100,VALID,0.0169808,VALID,19.4503,VALID,183,VALID,0.950041,
1999-11-26, 03:44:00,VALID,0,VALID,100,VALID,0.0169808,VALID,19.447,VALID,185,VALID,0.906867,
1999-11-26, 03:45:00,VALID,0,VALID,100,VALID,0.0169808,VALID,19.4503,VALID,207,VALID,0.727564,
1999-11-26, 03:46:00,VALID,0,VALID,100,VALID,0.0509425,VALID,19.4634,VALID,203,VALID,0.682227,
1999-11-26, 03:47:00,VALID,0,VALID,100,VALID,0.0339617,VALID,19.4498,VALID,212,VALID,0.799409,
1999-11-26, 03:48:00,VALID,0,VALID,100,VALID,0.0169808,VALID,19.46,VALID,217,VALID,0.759375,
1999-11-26, 03:49:00,VALID,0,VALID,100,VALID,0.0169808,VALID,19.4505,VALID,217,VALID,1.02284,
1999-11-26, 03:50:00,VALID,0,VALID,100,VALID,0.0509425,VALID,19.4436,VALID,217,VALID,0.924753,
1999-11-26, 03:51:00,VALID,0,VALID,100,VALID,0.0339617,VALID,19.4406,VALID,219,VALID,0.660633,
1999-11-26, 03:52:00,VALID,0,VALID,100,VALID,0.0509425,VALID,19.4436,VALID,219,VALID,0.780048,
1999-11-26, 03:53:00,VALID,0,VALID,100,VALID,0.0339617,VALID,19.4567,VALID,229,VALID,0.89043,
1999-11-26, 03:54:00,VALID,0,VALID,100,VALID,0.0169808,VALID,19.4734,VALID,225,VALID,0.617622,
1999-11-26, 03:55:00,VALID,0,VALID,100,VALID,0.0679233,VALID,19.4729,VALID,229,VALID,0.811899,
1999-11-26, 03:56:00,VALID,0,VALID,100,VALID,0,VALID,19.4729,VALID,225,VALID,0.784412,
1999-11-26, 03:57:00,VALID,0,VALID,100,VALID,0,VALID,19.4731,VALID,225,VALID,0.769748,
1999-11-26, 03:58:00,VALID,0,VALID,100,VALID,0.0339617,VALID,19.4796,VALID,225,VALID,0.638569,
1999-11-26, 03:59:00,VALID,0,VALID,100,VALID,0.0849042,VALID,19.4597,VALID,207,VALID,0.715666,
1999-11-26, 04:00:00,VALID,0,VALID,100,VALID,0.0339617,VALID,19.4634,VALID,202,VALID,0.65111,
1999-11-26, 04:01:00,VALID,0,VALID,100,VALID,0.0339617,VALID,19.4602,VALID,202,VALID,0.632412,
1999-11-26, 04:02:00,VALID,0,VALID,100,VALID,0.0169808,VALID,19.4468,VALID,202,VALID,0.745508,
1999-11-26, 04:03:00,VALID,0,VALID,100,VALID,0,VALID,19.4533,VALID,201,VALID,0.874578,
1999-11-26, 04:04:00,VALID,0,VALID,100,VALID,0.0509425,VALID,19.447,VALID,216,VALID,0.823438,
1999-11-26, 04:05:00,VALID,0,VALID,100,VALID,0.0339617,VALID,19.4438,VALID,213,VALID,0.575521,
1999-11-26, 04:06:00,VALID,0,VALID,100,VALID,0.0169808,VALID,19.4441,VALID,217,VALID,0.780016,
1999-11-26, 04:07:00,VALID,0,VALID,100,VALID,0,VALID,19.4475,VALID,213,VALID,0.552401,
1999-11-26, 04:08:00,VALID,0,VALID,100,VALID,0,VALID,19.4475,VALID,206,VALID,0.54082,
1999-11-26, 04:09:00,VALID,0,VALID,100,VALID,-0.0169808,VALID,19.4376,VALID,212,VALID,0.676367,
1999-11-26, 04:10:00,VALID,0,VALID,100,VALID,-0.0509425,VALID,19.4458,VALID,205,VALID,0.753255,
1999-11-26, 04:11:00,VALID,0,VALID,100,VALID,-0.0509425,VALID,19.4192,VALID,192,VALID,0.766226,
1999-11-26, 04:12:00,VALID,0,VALID,100,VALID,-0.0509425,VALID,19.4097,VALID,194,VALID,0.729911,
1999-11-26, 04:13:00,VALID,0,VALID,100,VALID,-0.0679233,VALID,19.4005,VALID,204,VALID,0.610431,